Wind_Speed
14 14 14 15 16 16 17 17 16 16 15 15 16 17 17 18 19 20 21 22 23 24 25 27 28 29 29 29 30 31 31 31 31 31 33 34 35 36 37 38 38 38 36 34 34 35 34 32 29 26 26 26 25 26 27 28 29 29 28 29 30 30 30 31 32 32 31 28 26 26 29 31 33 33 32 31 30 30 29 30 31 32 30 27 26
14 14 15 15 16 16 17 17 17 16 16 16 17 18 18 19 20 21 22 24 25 26 27 29 30 30 30 30 31 31 31 31 32 32 33 34 35 36 37 38 38 38 37 35 34 34 33 31 28 26 26 26 25 25 26 27 28 29 30 30 30 30 30 30 30 31 30 27 25 25 25 26 29 31 29 28 28 29 31 31 31 32 30 28 28
14 15 15 15 16 16 16 17 17 18 18 18 18 19 20 21 22 23 25 26 27 28 30 30 31 31 31 30 31 31 31 31 32 33 34 34 35 36 37 39 39 39 38 35 33 32 31 29 26 25 26 26 26 26 27 27 27 29 30 30 30 30 30 30 30 30 28 26 26 27 26 25 26 27 27 27 28 30 31 31 31 31 31 31 29
15 15 15 16 16 16 16 17 18 19 19 19 20 21 22 23 24 26 27 28 29 29 30 30 30 30 30 30 30 30 30 30 31 32 34 35 36 37 38 39 40 40 39 36 32 31 30 28 25 24 25 26 26 26 27 27 28 29 29 29 31 31 31 30 30 30 30 28 28 29 29 29 28 28 29 30 31 33 32 32 32 32 33 33 31
14 15 15 16 16 16 16 17 18 19 20 21 21 22 23 24 25 26 27 27 28 28 28 28 28 28 28 29 29 29 29 29 30 30 31 33 35 37 38 39 39 39 38 35 32 30 29 27 25 25 26 27 26 25 26 26 27 28 28 29 31 32 32 32 32 32 32 30 29 30 31 32 32 32 32 32 34 35 35 35 35 34 34 34 33
14 14 15 15 16 16 17 17 18 19 20 21 22 23 24 24 25 25 25 26 26 27 27 27 27 27 27 28 29 29 29 29 29 30 30 31 33 35 36 37 37 37 36 35 32 30 29 27 24 24 26 27 27 26 26 26 27 27 28 29 31 32 33 34 34 33 33 32 31 31 33 34 35 35 34 34 35 35 35 36 36 35 36 36 35
14 14 15 15 16 16 16 17 17 18 19 20 22 23 24 24 24 24 24 24 25 25 26 26 26 27 27 28 28 29 29 29 29 30 30 31 32 33 35 35 35 35 34 34 33 31 29 26 24 23 25 26 28 28 27 27 27 27 28 29 30 32 35 36 35 33 33 34 33 33 34 35 36 37 36 35 36 35 35 37 38 37 37 36 35
13 13 14 14 14 14 15 15 16 17 18 20 21 22 23 23 23 22 22 23 23 24 24 25 26 27 28 28 29 29 29 29 29 29 29 30 32 33 34 33 33 33 33 33 33 32 30 27 24 24 25 26 27 27 27 27 27 28 28 28 29 31 34 36 35 32 32 34 34 34 35 35 37 38 37 37 38 36 36 38 38 37 37 37 37
12 12 12 12 12 13 14 15 16 17 18 19 19 20 20 21 21 21 22 22 23 23 24 25 26 27 28 29 29 30 30 30 31 30 30 30 31 32 33 33 32 31 31 31 32 32 31 29 26 26 27 27 27 28 28 28 29 29 28 28 29 30 31 32 32 32 32 33 34 34 35 36 36 37 38 39 37 35 36 37 37 37 37 38 39
11 11 11 10 11 12 13 14 15 16 16 16 17 17 18 19 20 21 22 22 23 23 23 24 25 26 27 28 29 30 31 31 32 32 32 32 31 32 33 34 34 32 30 30 30 31 31 31 29 28 29 28 28 29 30 30 30 30 29 29 29 30 30 29 30 31 32 33 33 34 35 36 36 37 38 38 37 36 37 37 37 38 38 38 40
9 9 9 10 11 12 13 13 13 13 13 13 14 15 16 17 19 20 21 21 22 23 23 24 24 25 26 27 28 29 30 31 31 32 33 33 33 33 33 34 35 34 32 30 30 30 30 31 31 30 30 30 30 29 29 30 30 30 30 29 28 28 29 29 30 31 32 33 33 34 36 36 35 36 37 37 38 38 37 36 37 38 38 39 41
7 8 9 10 11 11 11 11 11 11 12 12 13 15 16 17 18 19 20 21 22 23 24 24 25 26 27 28 28 29 29 30 31 32 33 34 34 35 35 35 36 36 34 32 30 30 30 31 31 31 30 30 30 30 29 29 29 29 29 29 28 28 28 29 30 31 31 32 32 33 35 35 34 35 36 37 38 38 37 38 37 37 37 37 40
6 7 8 9 9 9 9 9 9 10 11 12 14 15 16 16 17 18 19 20 21 23 24 25 25 26 27 28 29 29 30 30 31 32 33 34 34 35 36 37 37 37 37 34 32 31 31 31 31 31 31 31 31 31 30 30 29 29 29 29 29 29 29 30 30 30 31 31 32 33 33 34 35 34 33 35 37 37 39 39 38 37 37 37 39
6 6 7 7 7 6 7 8 9 10 11 12 14 14 15 16 17 18 20 21 23 24 25 26 27 28 28 29 30 30 31 31 31 32 32 33 34 35 35 36 38 38 38 37 35 32 31 31 31 32 33 33 32 32 32 32 31 30 29 29 29 29 29 29 30 30 30 30 31 31 31 32 35 34 33 34 36 37 39 39 37 37 36 36 37
5 5 5 4 4 5 6 8 9 11 12 13 14 15 16 17 19 21 22 24 25 27 28 29 30 31 32 33 33 33 33 33 33 33 33 33 33 34 34 35 36 38 39 38 36 34 33 32 32 32 33 34 34 33 32 32 32 32 31 30 30 30 29 28 29 30 31 31 31 30 30 32 34 34 34 36 37 36 37 38 39 37 36 37 36
4 3 2 2 3 5 6 8 9 11 12 13 14 15 17 19 21 22 24 26 27 28 30 31 32 34 34 35 35 35 35 35 35 35 34 34 34 33 34 34 34 35 37 37 36 35 34 33 33 32 32 33 35 35 34 33 33 32 32 31 32 32 30 27 28 29 30 31 30 29 30 32 33 34 34 35 35 36 38 40 41 39 38 38 35
2 1 1 2 4 5 7 9 10 11 12 13 14 16 18 20 22 24 25 27 28 30 32 33 34 35 35 36 36 36 36 36 36 36 35 35 35 34 34 33 33 33 33 35 35 34 34 34 33 33 32 32 33 35 36 36 34 32 32 32 32 32 30 27 27 29 30 30 30 30 31 33 34 35 34 34 33 35 39 42 41 39 39 38 35
2 1 2 4 5 7 8 9 10 11 13 14 16 18 20 21 23 25 26 28 30 31 33 34 35 35 36 36 36 36 36 36 36 36 36 36 36 35 35 34 33 32 31 31 31 32 32 33 33 33 32 31 31 33 36 38 37 35 34 34 33 32 31 28 26 27 29 31 31 32 33 33 34 35 36 36 36 37 39 40 39 39 40 38 36
2 3 4 5 6 7 8 9 11 12 13 15 17 19 21 22 24 25 27 29 30 32 33 34 34 35 36 36 36 35 35 35 36 36 36 36 36 36 35 35 34 33 31 29 28 28 29 31 32 32 32 31 30 31 33 37 39 38 36 35 34 33 32 31 29 26 25 28 30 31 33 33 34 36 37 38 38 38 38 37 37 40 40 38 36
3 4 5 6 7 7 8 10 11 12 14 16 18 19 21 23 24 25 27 29 30 32 32 33 34 34 35 36 35 35 35 35 36 36 36 36 37 36 36 35 34 34 33 30 27 26 26 27 29 30 30 31 30 30 31 33 37 39 38 36 34 34 33 33 32 29 26 26 27 30 32 33 35 36 38 38 38 38 37 37 38 40 40 38 38
5 5 5 6 7 7 8 10 11 12 15 16 18 19 21 22 24 25 27 28 30 31 32 32 33 34 34 34 35 35 35 35 36 36 37 37 37 36 35 35 34 34 34 32 29 26 25 25 26 28 28 29 29 29 29 31 33 36 39 38 35 33 33 34 33 31 29 28 27 29 31 32 34 37 38 38 37 36 37 38 38 39 40 40 39
5 4 5 6 6 7 8 10 11 13 15 17 18 19 21 22 24 25 26 27 29 30 31 31 32 32 32 32 33 33 34 34 35 36 37 37 37 36 35 34 33 33 33 31 28 26 25 24 24 26 27 27 27 26 26 28 30 32 36 39 38 34 33 35 35 33 32 31 29 29 31 32 33 35 37 37 36 35 36 38 38 39 40 39 37
4 4 4 5 6 7 8 10 11 13 15 17 18 19 20 22 23 24 25 27 28 30 30 31 32 31 31 31 31 31 32 33 34 35 36 36 36 35 35 34 33 33 32 30 28 25 25 25 24 23 24 24 24 23 22 22 25 28 30 34 36 35 33 35 36 35 34 34 33 31 32 33 33 34 36 37 36 35 35 36 37 37 38 39 37
3 3 3 4 5 7 8 10 11 13 15 17 18 19 20 21 23 24 25 27 28 30 31 32 32 32 32 31 30 30 30 31 33 34 35 35 35 35 34 33 32 32 30 28 27 26 25 25 24 21 20 20 21 22 22 20 19 22 25 28 31 32 32 33 35 35 34 34 35 34 33 33 34 34 35 36 36 36 35 35 36 37 38 39 39
2 2 3 5 6 7 9 10 12 14 15 17 18 19 20 21 23 24 25 27 28 30 31 32 33 33 32 31 30 30 30 30 32 33 34 35 35 34 34 33 32 31 29 26 25 25 25 25 25 23 20 18 17 18 20 20 19 17 19 22 25 27 28 28 30 33 33 33 34 34 33 32 33 34 34 35 36 36 36 35 35 36 37 38 37
2 3 5 6 7 9 10 11 12 14 16 17 19 20 20 22 23 24 25 27 28 30 31 32 32 32 32 32 31 30 30 30 31 33 34 35 35 35 34 33 32 30 27 24 23 23 24 26 27 27 26 23 19 16 16 17 18 17 16 17 19 22 24 24 23 26 31 34 34 32 28 28 30 31 31 33 34 34 35 36 35 35 36 36 34
3 4 5 7 8 9 11 12 13 14 16 17 19 20 20 21 22 23 25 27 28 30 31 32 32 32 32 32 32 32 31 32 32 33 35 36 36 36 35 34 31 29 26 23 23 24 25 27 27 26 26 25 22 19 17 15 15 16 16 16 15 16 19 20 19 21 25 30 33 32 27 24 26 27 28 30 31 31 33 35 36 35 35 34 34
4 5 6 7 9 10 11 12 13 15 17 18 18 19 20 21 22 23 25 27 28 30 31 33 34 34 34 34 34 34 34 34 35 36 38 38 37 37 36 34 32 30 27 24 24 25 25 24 23 21 20 20 20 18 16 14 13 13 14 15 15 14 14 16 17 18 20 23 28 32 31 26 23 22 23 24 27 29 30 32 34 35 35 34 32
4 5 7 8 9 10 11 12 14 16 17 17 18 19 20 21 22 23 25 26 28 30 31 32 33 35 36 36 36 36 36 37 38 38 39 38 37 37 36 35 33 31 29 26 24 25 24 22 21 20 19 18 17 15 14 13 12 11 11 12 12 12 12 13 14 15 16 16 19 24 27 27 26 26 25 23 22 24 26 27 28 30 33 35 34
3 5 6 7 9 10 11 13 14 16 17 17 18 19 20 21 22 23 24 26 27 29 30 32 32 33 34 35 36 37 37 37 37 37 37 37 37 37 36 35 33 31 29 26 24 23 23 23 22 22 21 21 20 18 16 14 12 11 9 9 9 8 8 9 10 11 12 12 13 15 18 21 24 27 27 26 24 23 24 24 24 23 25 29 32
3 4 5 7 8 10 12 13 15 16 16 17 18 19 19 20 22 23 24 25 26 28 29 31 32 33 33 33 33 34 34 35 35 36 36 37 37 36 35 34 32 30 28 26 24 22 22 23 23 24 24 24 24 24 23 20 17 15 12 10 8 7 6 6 7 7 8 8 9 9 11 13 14 16 16 16 17 19 20 22 22 21 21 22 26
3 4 5 6 8 10 12 13 15 16 16 17 18 18 19 20 21 22 23 24 25 26 28 29 31 32 32 32 32 32 33 33 34 35 36 37 36 36 35 34 32 29 27 26 24 22 22 23 24 25 26 26 27 28 29 27 24 21 18 14 12 9 7 6 5 5 5 6 6 6 7 7 7 6 6 5 6 8 10 13 15 16 16 17 19
2 4 5 6 8 10 12 13 15 15 16 17 17 18 19 20 21 22 23 23 23 25 26 27 29 30 31 31 32 32 32 32 33 34 35 36 36 36 35 34 32 29 27 26 25 23 22 23 24 25 26 27 28 29 31 31 29 26 24 22 19 16 14 11 8 7 5 5 4 3 4 4 4 3 3 2 2 3 4 6 8 8 8 9 12
3 4 5 7 8 9 11 13 14 15 15 16 17 18 19 19 20 22 22 22 22 24 24 25 27 29 29 30 31 31 31 31 32 33 34 35 36 36 35 34 33 31 29 27 26 25 23 23 23 24 25 26 26 28 29 29 29 29 28 27 25 22 19 16 12 9 6 5 4 3 3 3 3 3 3 3 3 3 4 5 6 7 8 8 10
3 4 5 6 7 8 10 12 13 14 14 15 17 18 18 19 20 21 21 21 22 23 24 24 25 27 28 29 29 30 30 30 31 32 33 34 34 35 34 34 33 32 31 30 28 26 25 23 22 22 24 25 25 26 27 28 28 28 28 28 26 25 22 20 17 14 11 8 5 4 4 4 4 4 3 3 3 3 4 5 6 7 8 9 11
3 4 5 6 7 8 9 11 12 13 14 15 16 17 18 19 19 20 21 21 21 22 23 23 24 26 26 27 28 29 29 29 30 31 32 32 33 34 34 34 34 34 33 32 30 27 25 24 23 23 23 24 24 25 26 26 27 27 27 27 27 25 24 23 21 19 17 14 11 9 7 6 5 5 4 3 2 1 1 3 4 6 7 8 10
3 4 5 6 7 8 9 11 12 13 14 15 16 17 17 18 18 19 19 20 20 21 22 23 23 24 25 25 27 28 28 29 29 29 29 30 31 33 34 34 34 33 33 33 32 29 26 24 24 24 23 23 23 23 24 24 24 25 25 26 26 25 25 24 22 20 19 17 14 12 10 8 8 7 7 6 6 5 3 2 2 2 4 6 7
4 5 5 6 7 8 9 11 12 13 14 15 16 16 17 16 16 17 18 19 19 20 21 22 22 23 24 24 25 27 28 28 27 27 27 27 28 30 32 33 33 33 32 32 32 30 27 24 23 24 23 23 23 23 23 23 23 22 23 23 24 24 23 22 21 20 19 17 15 13 11 8 7 7 7 7 8 8 7 7 6 5 4 5 6
4 5 6 7 8 8 9 10 12 13 14 14 15 16 16 16 15 16 17 18 18 19 20 21 22 23 23 24 25 26 27 27 27 26 26 27 27 28 30 31 32 32 32 31 31 31 28 25 22 22 23 22 23 23 23 22 22 22 22 21 21 21 21 21 20 20 19 18 17 15 13 11 9 7 6 6 6 8 9 9 8 8 8 8 8
5 5 6 7 8 9 9 10 11 12 14 14 15 15 15 15 15 15 16 17 18 18 19 20 21 22 22 23 24 26 27 27 27 26 27 27 26 27 28 29 30 31 31 31 30 30 29 27 24 22 21 21 21 21 22 22 22 22 21 21 20 20 20 20 19 19 18 17 17 16 14 13 11 10 8 7 7 8 8 8 9 9 10 10 10
5 5 6 7 8 9 10 10 11 12 13 14 15 15 15 15 15 15 16 17 18 18 18 18 20 20 21 22 23 24 26 26 26 26 26 27 27 26 26 27 28 29 30 30 30 29 28 28 26 24 22 20 19 19 19 20 21 21 20 20 20 19 19 18 18 17 16 16 15 15 15 14 12 11 10 9 9 10 10 10 10 11 11 11 12
5 5 6 7 8 9 10 11 11 11 13 14 15 15 15 16 16 16 16 17 17 18 17 18 19 19 20 21 22 23 24 25 24 25 26 27 27 26 25 26 27 28 28 29 30 29 28 27 26 26 24 23 21 20 18 18 19 20 19 19 19 18 17 17 17 16 15 14 13 13 13 13 12 11 10 10 10 10 11 11 11 12 12 13 13
6 6 6 7 8 9 10 10 11 11 12 13 14 15 15 15 16 16 17 17 17 17 17 18 18 19 19 20 21 22 23 23 23 24 25 26 26 25 25 25 25 26 27 27 28 28 29 28 27 25 25 24 23 21 20 18 18 18 18 18 18 17 17 16 15 15 14 13 12 12 11 11 10 10 10 10 10 10 11 11 12 12 12 13 13
7 7 7 8 9 10 10 10 10 11 12 12 13 14 15 15 15 16 16 17 17 17 17 18 19 19 19 19 20 21 22 22 23 23 24 25 25 25 24 24 24 24 25 25 25 26 27 27 27 26 25 24 23 21 20 19 18 18 17 17 16 16 16 15 14 13 13 12 12 11 10 9 9 9 9 9 9 9 10 10 11 11 11 11 12
8 8 8 9 9 10 9 10 10 11 12 12 13 14 14 14 14 15 16 17 17 17 18 18 19 19 18 18 19 20 21 22 22 23 23 24 24 24 24 24 23 23 23 23 23 24 25 26 26 26 25 25 24 23 21 20 19 18 18 16 15 15 15 14 14 13 12 11 11 10 10 9 8 8 8 7 7 8 8 9 9 9 10 10 10
9 8 9 9 10 10 9 9 10 11 12 12 13 13 14 14 14 14 15 15 16 17 17 18 18 18 17 18 18 19 20 21 22 22 22 23 24 24 24 23 23 23 22 22 22 22 22 23 24 25 25 25 24 24 23 22 21 19 18 16 15 14 14 13 13 12 12 11 11 10 9 9 8 7 6 6 5 6 6 7 7 8 8 8 7
9 9 10 10 11 10 9 9 10 11 11 12 12 13 14 14 13 13 13 14 15 16 17 17 18 17 17 17 18 18 19 20 21 21 22 22 23 24 24 23 23 22 22 21 21 21 21 21 22 23 23 23 23 23 23 22 21 20 18 17 15 14 13 13 12 11 11 11 11 10 9 8 8 7 6 5 4 4 5 5 5 5 6 6 6
10 11 11 12 12 11 9 9 10 10 11 11 12 12 13 13 13 13 13 13 13 15 15 16 17 18 18 17 17 18 18 19 20 21 21 22 22 23 24 24 23 22 21 21 21 21 21 20 21 21 21 22 22 22 22 22 21 20 18 17 16 15 14 13 12 11 10 10 10 10 9 8 7 6 6 5 4 4 4 4 4 4 3 4 4
12 12 12 12 13 12 10 9 10 10 11 11 12 12 13 13 13 13 12 12 12 13 14 15 16 17 17 18 18 18 18 18 19 20 21 21 21 22 23 24 24 23 22 21 20 20 21 20 20 19 20 20 20 21 21 20 20 19 18 17 16 15 14 13 12 11 10 10 9 9 9 8 7 6 6 5 4 4 3 3 3 3 3 2 2
12 12 12 13 14 13 12 11 10 11 12 12 12 13 13 13 13 14 13 12 12 13 13 14 14 15 16 17 19 19 19 18 18 18 19 20 21 21 22 23 23 23 23 22 21 20 20 20 20 19 18 19 19 19 20 19 19 18 18 18 17 16 15 14 13 12 11 10 9 8 8 8 7 7 6 5 5 4 4 4 3 3 3 2 2
13 13 13 14 14 14 13 12 12 12 12 12 13 13 13 14 14 15 15 14 13 13 13 13 14 14 15 16 17 19 20 20 19 18 18 19 19 20 21 21 22 23 23 23 22 21 21 20 19 19 18 18 18 18 18 18 18 18 17 17 17 16 15 15 14 13 12 11 10 9 8 7 7 7 7 7 6 5 4 4 4 4 3 3 3
Wind_Direction
246 252 256 260 264 267 271 273 276 278 279 281 283 284 287 290 292 295 295 296 297 297 297 297 296 295 294 294 293 293 294 294 293 293 292 293 294 296 297 298 300 302 304 306 306 307 309 308 302 293 291 289 282 274 268 263 260 260 259 256 252 250 250 250 250 251 249 245 244 244 239 231 225 226 224 217 217 222 221 216 215 217 219 220 221
250 255 259 262 266 268 273 275 277 279 280 283 284 287 291 293 295 297 296 297 297 296 296 296 295 294 293 293 293 293 293 292 292 292 292 292 293 294 295 297 298 299 301 303 303 304 307 306 300 292 289 289 284 276 270 265 261 259 257 255 251 248 248 247 248 250 247 240 236 236 236 232 227 225 222 216 217 221 222 219 218 219 220 221 222
256 260 263 266 268 271 275 278 280 283 285 288 290 292 296 296 297 297 297 297 296 296 296 296 296 295 295 295 294 294 294 293 293 292 292 292 292 292 293 294 296 297 299 300 300 301 303 303 298 291 288 288 285 278 273 268 264 260 258 255 250 247 246 245 245 248 245 236 230 230 231 233 230 227 225 222 220 221 221 221 220 222 223 223 223
261 265 268 271 273 276 280 282 285 289 291 294 296 298 299 300 300 299 298 298 298 299 299 299 299 299 298 298 297 296 295 294 293 292 291 291 291 291 292 292 294 296 297 299 298 298 299 299 294 289 286 286 286 283 277 271 266 263 259 254 249 247 245 244 243 244 242 236 231 230 233 234 232 231 229 226 224 222 221 221 221 222 224 225 224
266 270 273 278 281 284 286 287 290 293 296 299 301 301 302 302 302 302 302 303 303 303 303 303 303 303 302 302 301 300 298 296 295 293 290 290 289 290 291 292 293 295 296 297 297 296 297 295 290 287 284 284 285 284 281 275 269 266 262 255 250 247 245 245 243 242 242 241 235 232 234 234 232 231 230 228 226 223 222 222 221 221 223 224 223
271 277 282 286 289 290 291 292 295 298 301 303 303 304 304 304 305 306 306 306 306 306 306 306 306 305 305 304 303 302 301 299 298 296 293 291 289 289 290 292 293 295 296 296 295 294 294 291 286 284 284 283 282 280 278 274 269 267 265 260 253 247 244 244 245 244 242 241 238 234 233 233 233 232 231 231 230 227 224 225 223 222 223 223 221
279 284 288 289 291 292 294 297 301 303 305 305 306 306 307 307 308 309 309 310 310 311 311 311 311 310 309 308 307 306 304 302 301 299 297 295 293 292 292 293 294 294 295 294 293 291 291 287 280 279 282 283 282 281 278 274 271 267 265 263 258 252 247 245 245 244 241 240 238 236 235 233 234 234 233 233 233 230 227 226 225 223 223 222 221
284 287 289 290 292 296 300 304 306 307 309 309 310 310 311 312 313 314 315 316 317 318 318 318 318 317 316 315 313 312 310 307 305 302 299 296 294 293 293 293 293 293 293 292 291 289 287 283 275 272 276 278 279 280 278 276 274 272 269 267 264 258 254 249 243 239 239 240 238 236 236 234 234 235 234 233 232 231 229 228 227 226 225 223 222
286 287 288 291 297 302 306 309 311 313 314 315 315 316 316 318 320 321 323 323 324 325 325 325 324 323 321 320 318 316 314 312 310 307 303 299 295 293 292 293 293 292 291 290 288 286 284 280 272 267 270 273 274 275 275 274 272 271 271 269 266 261 256 248 241 237 237 239 238 237 237 235 234 235 234 232 232 233 233 232 230 228 228 226 224
285 286 291 298 304 309 312 314 317 318 319 319 320 321 322 324 326 328 328 329 330 330 330 329 327 325 324 323 321 320 318 316 314 311 308 305 301 297 294 294 294 294 291 287 285 284 281 277 271 265 264 267 270 272 274 274 272 271 270 267 265 262 255 245 238 237 237 237 237 238 238 237 235 236 235 232 231 234 236 235 233 229 228 228 227
286 292 302 309 311 315 318 320 322 322 323 325 325 327 330 332 333 334 334 334 334 333 333 332 330 329 328 326 325 324 322 320 318 316 313 309 306 302 297 295 294 294 293 289 284 282 279 274 270 267 264 262 264 268 272 273 273 272 269 264 260 260 257 248 241 238 236 235 236 238 239 238 238 239 237 232 230 233 235 235 233 231 230 229 228
296 308 314 315 317 321 323 324 327 329 331 333 335 338 341 341 341 341 340 341 341 341 340 339 338 336 333 331 329 327 326 324 322 319 317 313 310 306 302 298 295 294 293 291 286 282 279 275 270 267 267 265 263 264 267 270 272 273 270 263 256 254 255 251 245 240 237 236 236 238 239 238 238 239 238 235 233 235 236 235 234 234 235 234 231
311 316 317 319 320 323 326 331 337 339 341 344 348 350 351 350 350 351 351 351 351 350 348 347 345 342 339 336 334 331 329 327 324 321 319 316 313 310 306 302 299 296 295 293 289 284 280 277 272 267 265 266 265 263 264 266 269 270 269 264 257 253 252 251 248 243 241 240 239 239 238 236 236 237 236 236 238 238 238 238 237 236 236 236 233
316 314 314 318 322 329 339 346 350 351 354 359 2 2 1 2 3 3 2 1 359 357 356 354 352 349 346 343 340 337 334 330 327 324 320 318 315 312 309 306 302 300 298 295 292 287 282 278 274 268 263 263 263 264 264 264 265 266 265 262 257 253 250 249 248 245 243 243 243 241 238 236 235 235 234 236 238 239 241 241 239 237 238 237 234
305 306 310 319 335 350 356 0 4 7 10 12 12 12 11 11 11 9 8 6 4 2 0 358 356 354 351 348 345 342 339 336 332 329 325 321 318 314 311 308 305 302 300 298 295 291 286 281 278 274 267 261 260 262 263 264 263 263 264 260 255 252 249 246 246 245 242 243 244 243 239 237 236 235 235 235 236 237 241 242 240 238 239 238 235
287 292 306 348 8 11 13 19 21 21 21 19 17 16 15 14 13 11 10 8 5 3 2 0 358 356 354 350 347 344 342 340 337 334 331 327 323 319 315 311 308 305 302 301 298 293 288 284 281 279 274 265 260 259 261 263 263 262 263 261 255 252 249 245 244 244 242 241 243 243 241 238 237 237 236 235 234 233 235 237 237 236 237 239 236
251 225 71 40 36 35 34 34 30 26 23 19 16 15 14 13 12 10 9 8 5 4 2 1 360 357 354 351 348 346 344 342 340 338 335 332 328 324 320 316 312 309 306 304 301 297 292 287 283 281 278 272 265 260 259 260 261 259 259 261 258 252 249 245 242 240 240 240 239 240 240 238 235 235 234 233 233 232 232 234 235 235 236 237 235
185 127 72 58 55 49 43 36 28 23 19 14 13 13 12 11 10 9 8 6 5 5 3 1 359 357 355 352 349 347 346 344 343 341 339 337 334 330 327 323 318 315 312 308 304 300 295 291 288 284 282 278 271 264 259 258 259 259 257 258 260 257 252 248 244 239 238 239 237 236 237 237 234 233 233 233 233 234 234 233 233 235 236 234 233
145 105 79 70 61 49 40 31 23 17 12 10 11 11 10 9 9 8 7 6 5 5 3 1 359 357 355 352 350 348 347 346 346 344 343 341 339 336 333 329 324 320 317 312 306 301 296 293 292 289 286 284 279 271 263 257 257 259 259 258 259 260 258 253 249 245 242 241 238 236 235 236 235 233 232 233 234 235 235 234 232 233 234 234 232
122 98 81 69 55 40 31 23 15 10 7 8 9 9 8 8 7 7 6 6 5 5 3 1 360 357 355 353 350 349 349 348 348 347 346 345 343 341 337 333 328 325 322 319 314 307 300 295 294 293 290 287 284 279 272 263 258 257 259 260 258 257 258 256 251 247 246 245 242 239 237 236 235 233 232 233 233 233 234 234 233 233 233 233 233
113 94 75 60 44 29 20 14 9 6 5 6 8 7 6 6 6 6 6 5 6 5 4 2 0 358 356 353 351 350 350 350 350 349 349 347 345 343 340 335 332 329 327 325 321 316 309 302 298 296 294 290 287 282 276 271 264 257 256 260 260 257 257 257 252 245 244 246 245 242 240 237 234 233 232 233 233 233 234 234 233 234 235 233 234
108 85 63 48 31 18 11 7 5 4 4 5 6 6 5 4 5 5 5 5 6 6 5 4 2 360 357 355 353 353 352 351 351 351 351 349 347 344 342 339 336 334 330 327 324 320 315 311 306 303 302 298 293 288 280 273 269 263 258 258 261 260 256 253 251 244 240 243 245 243 242 240 237 234 234 235 235 235 237 237 235 235 236 235 235
91 67 48 32 18 9 6 5 4 3 2 3 5 4 3 3 4 4 4 5 6 6 6 5 4 1 359 357 356 355 355 354 354 354 352 350 348 346 344 342 340 338 334 331 328 325 320 317 315 312 311 309 304 298 291 279 271 268 264 259 258 259 255 251 251 248 240 239 242 244 243 243 241 238 236 236 237 237 239 240 239 237 237 237 235
80 50 27 17 9 4 4 5 4 3 2 3 4 3 2 2 3 4 4 5 5 6 6 6 4 3 1 360 358 358 358 357 357 356 354 352 350 349 347 345 343 342 339 335 333 332 329 325 323 322 321 320 315 309 305 298 284 273 269 263 257 256 253 249 250 251 247 242 241 241 243 243 242 241 239 237 238 237 237 238 239 237 236 237 237
81 30 7 7 7 3 4 6 5 3 4 3 4 3 2 1 3 4 4 5 5 6 6 6 5 3 2 1 0 360 360 360 359 358 356 354 353 352 351 349 348 347 345 341 339 340 340 337 335 334 331 326 319 312 308 308 304 291 277 268 261 257 254 248 244 246 251 252 245 240 242 245 243 242 241 239 238 238 236 236 237 236 235 237 239
56 24 6 4 5 3 6 8 7 5 5 4 3 3 1 1 3 4 5 5 5 6 7 6 5 4 3 2 2 2 2 2 2 1 359 357 357 357 355 353 352 352 350 347 346 349 352 351 346 342 339 335 330 323 315 311 310 307 297 283 269 260 256 254 247 242 248 255 252 243 241 246 245 243 243 241 239 238 238 237 237 236 236 237 238
32 23 11 6 6 6 8 9 8 7 6 4 3 2 1 0 3 4 5 5 5 5 5 5 4 4 4 3 3 4 4 4 4 3 1 360 359 359 358 356 355 356 355 352 353 357 360 357 351 345 340 337 334 331 326 319 309 305 306 303 290 271 259 257 254 244 242 248 250 244 239 241 243 241 240 240 238 238 239 239 238 237 236 237 238
19 17 10 8 10 9 9 9 9 8 7 4 2 2 1 360 2 5 5 5 5 5 5 5 4 4 4 4 4 4 5 6 5 4 3 2 1 1 360 358 358 359 359 358 359 1 360 355 351 348 344 339 335 332 331 327 316 304 304 306 302 292 277 265 256 247 239 239 243 243 240 238 237 235 232 230 230 231 235 238 240 238 237 237 238
16 11 6 8 12 11 9 9 11 9 5 2 2 2 1 360 2 5 5 4 5 5 5 5 5 5 5 4 3 3 5 7 7 5 3 2 2 2 1 0 1 1 0 1 1 359 356 354 354 356 357 354 351 349 347 343 335 321 308 302 297 292 285 273 259 249 244 239 239 241 240 237 238 241 241 239 235 231 228 228 230 232 235 236 237
13 2 2 7 11 10 9 11 12 8 3 1 2 3 2 1 2 5 6 5 5 5 4 5 7 7 7 6 4 3 5 7 7 6 4 3 3 4 3 2 2 1 360 1 0 357 357 0 4 6 8 10 11 12 11 8 3 354 338 321 308 297 288 281 268 255 250 247 244 244 242 241 245 250 253 255 253 245 234 225 219 217 220 225 228
10 356 358 5 9 9 10 11 11 7 2 0 2 3 3 2 3 5 5 6 6 5 3 4 6 7 8 8 6 4 5 6 7 7 6 5 4 5 5 4 3 1 360 359 0 1 4 7 11 14 16 18 20 23 23 22 22 20 14 2 344 329 317 304 290 275 265 259 256 255 255 254 256 257 256 255 253 248 244 241 239 235 229 222 218
7 351 353 3 9 8 8 9 10 6 1 0 1 2 3 3 4 4 5 6 6 5 4 4 5 6 6 7 6 5 4 5 7 8 7 7 6 6 7 7 5 3 2 360 1 6 11 13 15 18 21 23 25 26 26 26 27 28 28 26 20 12 7 358 341 322 303 285 271 265 263 260 258 256 251 247 244 243 246 249 248 246 243 237 228
356 351 355 5 8 6 4 5 6 3 0 359 0 2 2 3 4 4 4 5 6 5 5 5 5 4 5 6 6 5 4 4 6 8 9 9 8 8 9 9 7 7 6 3 4 8 12 15 17 20 24 27 29 29 28 27 27 29 31 32 32 30 27 25 21 11 354 337 320 295 275 265 255 241 225 212 211 217 227 236 236 231 228 231 233
340 349 357 4 6 3 1 1 0 359 358 358 359 1 1 1 3 3 2 2 4 6 6 6 4 3 3 5 5 5 4 3 5 7 9 9 10 11 11 10 10 11 10 9 8 8 10 14 19 22 24 27 30 31 30 29 29 30 32 33 34 34 34 34 33 29 24 15 1 344 326 302 282 269 255 244 231 211 201 208 218 219 210 203 209
324 343 357 3 3 359 358 356 355 356 357 356 358 359 358 359 2 2 0 360 2 4 6 6 5 4 3 3 5 5 4 3 4 6 8 9 10 12 12 11 11 13 13 13 13 12 10 13 18 23 25 26 28 30 29 28 29 31 32 33 33 34 36 38 38 37 35 30 15 357 343 327 316 316 313 292 267 245 224 211 207 209 207 201 197
318 335 352 1 360 356 354 352 353 356 356 356 358 358 356 358 1 0 358 358 359 2 4 5 5 5 4 3 3 3 2 3 3 5 6 7 9 11 12 12 13 14 15 16 16 15 14 15 17 21 25 26 27 28 29 28 28 30 32 33 34 34 35 37 38 38 37 34 31 27 15 2 3 19 21 8 357 337 239 222 217 214 212 208 202
317 328 345 356 355 353 351 350 353 357 357 356 358 358 355 356 357 357 356 356 357 359 1 3 4 6 6 4 2 1 1 2 4 3 3 5 8 11 12 13 14 15 16 17 18 18 19 20 20 20 22 24 26 27 29 29 29 30 32 34 35 36 37 38 39 39 39 37 37 38 37 39 51 57 50 39 37 44 58 83 119 183 202 205 203
321 327 341 350 349 348 349 349 352 357 356 354 355 357 355 354 355 355 355 355 355 356 358 359 1 3 5 5 3 1 2 3 3 2 2 4 7 10 12 13 14 15 17 18 19 19 21 24 25 23 22 23 24 27 28 30 31 32 34 36 37 38 39 41 42 43 44 44 44 44 46 53 66 69 59 52 54 60 68 81 95 112 134 157 172
320 325 336 343 342 343 346 347 350 353 353 352 352 354 353 353 355 356 353 352 353 354 355 356 357 0 3 4 3 2 2 3 3 2 2 4 6 9 11 12 13 15 17 18 18 19 20 23 25 26 25 24 24 25 27 29 31 32 33 35 38 39 39 40 42 44 46 48 49 50 52 56 64 69 67 65 72 78 82 89 102 113 122 130 141
313 321 330 334 335 336 339 343 348 350 349 347 348 350 350 351 355 357 353 351 352 354 354 354 355 357 360 2 2 2 2 3 3 4 4 5 6 8 9 10 12 14 16 17 17 18 18 20 22 23 23 23 24 25 26 28 30 31 32 33 35 37 38 38 38 40 44 47 50 52 55 59 64 70 76 81 87 91 93 96 101 106 112 116 119
305 313 319 324 327 329 332 339 345 348 346 343 343 345 346 349 353 355 353 352 352 354 355 354 353 355 357 359 0 2 2 2 4 5 6 6 7 7 8 10 11 12 13 15 16 17 16 16 17 18 18 19 20 21 24 26 27 28 30 32 33 34 35 35 35 35 37 43 48 52 55 60 65 70 76 80 84 85 86 89 92 95 98 100 102
296 301 308 313 317 322 329 335 341 344 342 339 339 340 341 345 350 352 353 353 354 355 356 355 353 354 356 357 359 0 1 2 3 5 6 6 6 6 7 8 10 11 12 12 13 15 15 15 14 15 16 18 19 19 20 23 24 24 24 25 28 30 31 31 31 31 30 33 40 49 54 58 62 68 72 76 80 83 84 86 88 92 94 96 97
285 289 297 304 309 317 326 331 335 337 336 334 334 334 336 341 346 349 350 352 354 355 356 355 355 355 356 356 357 358 360 1 2 4 4 5 5 4 4 5 8 9 11 10 10 11 13 14 13 12 13 15 17 18 18 19 21 22 21 20 21 23 25 26 27 27 26 25 28 38 49 56 61 65 70 74 78 80 82 83 84 86 89 92 93
279 281 289 298 305 314 322 326 329 332 331 330 330 330 332 337 343 345 346 348 351 354 355 354 355 357 358 356 355 356 357 360 2 3 3 3 3 2 1 1 3 5 7 8 9 9 10 11 12 12 12 12 12 13 14 15 16 17 18 17 17 17 18 19 20 21 22 21 21 25 34 46 55 60 64 70 75 79 80 80 80 79 80 83 87
274 278 285 293 299 307 315 321 325 327 326 326 327 328 330 335 340 342 342 343 347 350 352 353 354 356 357 356 355 355 356 358 0 2 2 2 2 2 1 0 1 2 3 5 6 7 8 9 10 10 11 11 11 11 11 11 12 13 13 12 14 15 14 13 13 14 14 14 16 20 21 26 38 51 57 62 71 80 84 86 86 84 82 82 84
267 273 281 288 292 299 308 317 322 323 322 324 326 327 329 335 339 339 339 339 342 345 348 349 351 353 354 354 354 355 356 357 359 1 2 2 2 3 3 1 0 0 1 1 2 2 4 7 8 9 9 9 9 9 10 9 9 9 9 8 10 12 12 11 10 10 9 8 9 13 14 13 18 32 45 53 60 69 76 84 90 93 92 90 88
262 270 277 282 285 292 302 312 317 319 320 322 323 323 326 331 335 336 336 335 336 339 342 343 344 348 352 354 353 354 356 356 357 359 1 1 1 2 3 2 1 359 358 358 358 357 358 1 4 7 9 9 8 7 8 8 8 6 6 7 9 10 10 9 8 7 7 5 4 7 10 10 10 15 24 35 44 48 51 58 69 81 89 91 88
261 267 272 277 283 288 297 306 312 314 315 316 316 318 321 326 329 333 335 334 332 332 335 336 338 342 346 349 350 351 354 356 356 357 358 359 0 1 2 2 1 359 357 355 354 353 353 356 358 1 4 8 8 6 6 7 7 6 5 6 9 11 11 10 7 5 5 4 1 0 2 5 7 8 9 15 24 29 27 26 26 34 54 74 81
258 262 267 274 280 284 289 297 304 307 310 311 312 314 317 320 324 327 332 333 332 330 330 332 335 337 340 341 343 346 351 354 355 354 354 356 358 359 360 0 1 0 359 357 354 351 350 352 354 355 358 2 5 5 5 6 6 6 6 6 7 9 11 11 9 5 3 1 360 357 354 354 358 1 1 4 8 10 6 5 4 1 3 16 43
254 257 263 270 276 280 285 291 297 303 306 308 309 311 314 318 320 323 327 330 331 330 330 331 332 333 333 333 335 339 344 350 353 352 352 353 354 356 357 358 359 0 0 359 356 352 350 351 352 352 353 355 359 1 3 4 5 5 7 7 6 6 7 9 9 8 3 358 356 354 350 348 350 352 352 354 356 355 347 340 337 337 335 327 319
255 256 260 267 272 278 282 286 292 298 302 303 304 307 311 314 316 318 320 323 326 328 330 331 331 329 327 327 329 331 335 341 346 349 350 351 351 352 353 355 356 358 360 360 358 354 351 351 351 350 350 351 353 355 358 0 2 3 5 6 5 5 5 5 6 5 2 358 354 351 348 346 346 344 344 347 349 346 334 325 324 324 324 317 306
Height
3137 3138 3138 3138 3138 3138 3138 3137 3137 3136 3136 3136 3135 3134 3133 3132 3131 3130 3129 3128 3127 3125 3124 3122 3120 3119 3117 3116 3114 3112 3110 3109 3107 3105 3103 3101 3099 3097 3095 3093 3091 3088 3087 3085 3083 3080 3077 3075 3073 3071 3069 3068 3067 3066 3065 3065 3065 3065 3065 3065 3065 3066 3067 3067 3067 3069 3070 3072 3073 3074 3074 3075 3077 3079 3081 3083 3086 3088 3090 3093 3095 3097 3098 3100 3102
3135 3136 3136 3137 3137 3136 3136 3135 3134 3134 3134 3133 3133 3132 3131 3130 3129 3128 3126 3125 3124 3122 3120 3119 3117 3115 3114 3112 3110 3108 3107 3105 3103 3101 3099 3097 3095 3093 3091 3089 3087 3085 3083 3081 3080 3077 3074 3072 3070 3069 3067 3065 3064 3063 3062 3062 3062 3061 3061 3061 3062 3063 3063 3064 3064 3065 3067 3069 3070 3070 3071 3072 3074 3076 3078 3080 3083 3085 3087 3089 3092 3093 3095 3097 3099
3134 3134 3134 3135 3135 3134 3133 3132 3132 3131 3131 3131 3130 3129 3128 3127 3126 3124 3123 3122 3120 3118 3117 3115 3113 3111 3110 3108 3106 3104 3103 3101 3099 3097 3095 3093 3091 3089 3087 3084 3082 3081 3079 3078 3076 3074 3071 3069 3067 3066 3064 3062 3061 3060 3060 3059 3058 3058 3058 3058 3059 3059 3060 3061 3062 3062 3064 3065 3067 3068 3069 3069 3071 3073 3076 3078 3080 3081 3084 3086 3088 3090 3092 3094 3096
3132 3132 3132 3132 3132 3132 3131 3130 3129 3129 3128 3127 3127 3126 3125 3123 3122 3120 3119 3118 3116 3114 3113 3111 3109 3107 3106 3104 3102 3100 3099 3097 3095 3093 3091 3089 3087 3085 3083 3081 3078 3077 3075 3074 3073 3071 3068 3066 3064 3063 3061 3060 3059 3058 3057 3056 3055 3055 3055 3055 3055 3055 3056 3057 3059 3060 3061 3062 3064 3065 3066 3067 3069 3071 3073 3075 3077 3078 3080 3083 3085 3087 3089 3091 3093
3130 3130 3130 3130 3130 3129 3128 3128 3127 3126 3125 3124 3123 3122 3121 3119 3118 3117 3115 3114 3112 3110 3109 3107 3105 3103 3101 3099 3098 3096 3095 3093 3091 3089 3087 3085 3083 3081 3079 3077 3075 3073 3071 3070 3069 3067 3065 3063 3061 3060 3058 3057 3056 3055 3054 3053 3052 3051 3051 3051 3051 3052 3053 3054 3055 3056 3057 3059 3061 3062 3063 3064 3065 3067 3069 3071 3073 3075 3077 3078 3081 3083 3085 3087 3090
3128 3128 3128 3128 3127 3127 3126 3125 3124 3123 3122 3121 3120 3118 3117 3116 3115 3114 3112 3110 3109 3107 3105 3103 3101 3100 3098 3096 3094 3092 3090 3089 3087 3085 3084 3081 3079 3077 3075 3073 3071 3069 3067 3065 3064 3063 3062 3060 3058 3056 3055 3054 3053 3051 3050 3050 3049 3048 3048 3047 3048 3049 3049 3050 3051 3052 3054 3055 3057 3058 3059 3060 3061 3063 3065 3067 3069 3072 3074 3075 3077 3079 3081 3083 3086
3127 3126 3126 3125 3125 3124 3123 3123 3122 3121 3120 3118 3117 3116 3114 3113 3112 3111 3109 3107 3105 3103 3101 3100 3098 3096 3094 3092 3090 3088 3086 3085 3083 3081 3079 3077 3075 3073 3071 3069 3067 3065 3064 3061 3060 3059 3058 3056 3055 3053 3052 3051 3050 3049 3047 3046 3045 3045 3044 3044 3044 3044 3045 3045 3047 3048 3050 3051 3052 3054 3055 3057 3057 3059 3062 3064 3065 3067 3070 3070 3072 3074 3077 3080 3082
3125 3125 3124 3124 3123 3122 3121 3120 3119 3118 3117 3116 3115 3113 3112 3111 3109 3108 3106 3105 3103 3101 3099 3097 3094 3092 3090 3088 3086 3084 3082 3081 3079 3078 3076 3074 3071 3069 3067 3065 3064 3062 3060 3058 3056 3055 3054 3053 3051 3050 3049 3048 3047 3046 3045 3043 3042 3042 3041 3041 3041 3040 3040 3041 3042 3044 3046 3047 3048 3050 3051 3052 3053 3055 3058 3059 3060 3062 3064 3066 3068 3071 3073 3076 3078
3123 3123 3122 3122 3121 3120 3119 3119 3118 3116 3115 3114 3113 3112 3110 3109 3107 3105 3104 3102 3100 3098 3096 3094 3092 3089 3087 3085 3083 3081 3079 3077 3075 3073 3072 3070 3068 3065 3063 3061 3060 3058 3056 3055 3052 3051 3050 3049 3048 3046 3045 3044 3043 3042 3041 3040 3039 3038 3038 3038 3037 3037 3036 3037 3038 3039 3041 3042 3044 3045 3046 3047 3049 3051 3052 3054 3057 3059 3061 3063 3065 3067 3069 3071 3072
3122 3121 3121 3120 3120 3119 3118 3117 3116 3115 3114 3113 3112 3110 3109 3107 3105 3103 3101 3100 3098 3096 3094 3092 3090 3087 3085 3082 3080 3078 3075 3073 3071 3069 3067 3065 3063 3061 3059 3057 3055 3053 3052 3051 3049 3047 3045 3044 3043 3042 3041 3040 3039 3038 3038 3037 3036 3035 3035 3034 3034 3033 3032 3033 3033 3035 3036 3037 3039 3040 3041 3043 3045 3047 3048 3052 3055 3055 3057 3060 3062 3063 3064 3067 3068
3120 3120 3119 3118 3118 3117 3117 3116 3115 3114 3113 3112 3111 3109 3107 3105 3103 3102 3100 3098 3096 3094 3092 3090 3087 3085 3083 3080 3078 3075 3073 3070 3068 3065 3063 3061 3059 3057 3054 3052 3050 3049 3047 3046 3045 3043 3041 3040 3038 3037 3036 3035 3035 3034 3034 3033 3032 3032 3031 3031 3030 3030 3029 3029 3029 3030 3031 3033 3034 3036 3037 3039 3042 3043 3045 3048 3050 3051 3053 3056 3057 3058 3060 3063 3065
3119 3118 3117 3117 3116 3116 3115 3115 3114 3113 3112 3111 3109 3108 3106 3104 3102 3100 3099 3097 3094 3092 3090 3088 3085 3083 3080 3078 3075 3073 3070 3068 3065 3062 3060 3057 3055 3052 3050 3048 3046 3044 3042 3041 3039 3038 3037 3035 3034 3033 3031 3031 3030 3030 3030 3029 3028 3028 3027 3027 3027 3026 3026 3026 3026 3026 3027 3028 3030 3031 3033 3036 3038 3039 3041 3044 3046 3048 3049 3051 3053 3055 3057 3059 3061
3117 3117 3116 3116 3116 3115 3115 3114 3113 3112 3111 3109 3108 3106 3105 3103 3101 3099 3098 3095 3093 3091 3089 3086 3084 3081 3078 3076 3073 3070 3068 3065 3062 3060 3057 3054 3051 3048 3046 3043 3041 3039 3037 3036 3034 3033 3032 3030 3030 3029 3027 3026 3025 3025 3025 3025 3024 3024 3024 3023 3023 3023 3022 3022 3022 3023 3024 3025 3026 3027 3029 3032 3034 3035 3038 3041 3043 3044 3045 3046 3049 3051 3053 3055 3057
3116 3116 3116 3116 3115 3115 3114 3113 3112 3111 3110 3108 3107 3106 3104 3102 3101 3099 3096 3094 3092 3090 3087 3084 3082 3079 3076 3073 3070 3068 3065 3062 3060 3057 3054 3051 3048 3045 3042 3039 3037 3034 3032 3031 3029 3028 3027 3025 3024 3023 3023 3021 3021 3020 3020 3020 3020 3020 3020 3019 3019 3019 3018 3018 3018 3019 3020 3021 3022 3023 3026 3028 3029 3032 3035 3035 3037 3039 3041 3043 3046 3048 3049 3051 3053
3116 3116 3116 3116 3115 3115 3113 3112 3111 3110 3109 3108 3106 3105 3103 3102 3100 3097 3095 3093 3090 3088 3085 3082 3079 3076 3073 3070 3067 3065 3062 3059 3057 3054 3051 3048 3045 3042 3039 3036 3033 3030 3028 3026 3024 3023 3022 3020 3019 3018 3017 3016 3016 3015 3015 3015 3015 3015 3015 3015 3015 3015 3014 3014 3014 3015 3016 3017 3018 3020 3022 3023 3025 3028 3029 3029 3031 3034 3037 3039 3041 3043 3045 3046 3048
3116 3116 3116 3115 3115 3114 3113 3112 3111 3110 3109 3107 3106 3104 3103 3101 3099 3096 3094 3091 3089 3086 3083 3080 3077 3074 3071 3068 3065 3062 3059 3056 3054 3051 3048 3045 3042 3039 3036 3033 3030 3027 3024 3021 3019 3018 3016 3015 3014 3013 3011 3011 3010 3010 3010 3010 3010 3010 3010 3010 3010 3010 3010 3011 3010 3011 3012 3013 3014 3016 3018 3019 3021 3023 3024 3025 3027 3029 3031 3032 3033 3036 3039 3041 3043
3116 3116 3115 3115 3114 3113 3112 3111 3110 3109 3108 3107 3105 3104 3102 3100 3098 3095 3093 3090 3087 3084 3081 3078 3076 3073 3070 3067 3064 3060 3057 3054 3051 3048 3045 3042 3039 3036 3033 3030 3027 3024 3021 3018 3015 3013 3012 3010 3009 3008 3007 3006 3005 3005 3005 3005 3005 3006 3006 3006 3006 3006 3006 3006 3006 3006 3007 3008 3010 3012 3013 3014 3016 3018 3020 3022 3023 3024 3024 3026 3029 3032 3034 3036 3039
3115 3115 3115 3114 3113 3113 3112 3111 3110 3109 3108 3106 3105 3103 3101 3099 3096 3094 3091 3088 3086 3083 3080 3077 3074 3071 3068 3065 3061 3058 3055 3052 3049 3046 3042 3039 3035 3032 3029 3026 3023 3021 3018 3015 3012 3010 3007 3005 3004 3003 3002 3001 3000 2999 2999 3000 3000 3000 3000 3001 3001 3001 3002 3002 3002 3002 3003 3004 3005 3007 3008 3009 3011 3013 3015 3017 3018 3019 3020 3022 3026 3028 3029 3032 3035
3115 3115 3114 3114 3113 3112 3112 3111 3110 3108 3107 3106 3104 3102 3100 3097 3095 3092 3090 3087 3085 3082 3079 3076 3073 3070 3067 3063 3060 3057 3054 3050 3047 3044 3040 3037 3033 3030 3026 3023 3020 3017 3015 3013 3010 3007 3004 3002 3000 2998 2997 2996 2995 2994 2994 2994 2995 2995 2995 2995 2996 2997 2997 2997 2998 2998 2999 2999 3001 3002 3004 3005 3007 3008 3010 3012 3014 3015 3017 3020 3022 3023 3025 3029 3031
3115 3114 3114 3113 3113 3112 3111 3110 3109 3108 3107 3105 3103 3101 3099 3097 3094 3092 3089 3087 3084 3081 3078 3075 3072 3069 3065 3062 3059 3056 3052 3049 3046 3042 3038 3035 3031 3028 3024 3020 3017 3014 3011 3008 3006 3004 3002 2999 2997 2995 2993 2992 2991 2990 2989 2989 2989 2989 2990 2990 2991 2992 2993 2993 2994 2994 2995 2995 2997 2998 3000 3001 3003 3004 3005 3007 3009 3011 3013 3015 3017 3018 3021 3024 3025
3114 3114 3114 3113 3113 3112 3111 3110 3109 3108 3106 3104 3102 3100 3098 3096 3094 3091 3089 3086 3084 3081 3078 3075 3072 3068 3065 3061 3058 3054 3051 3048 3044 3041 3037 3033 3030 3026 3022 3018 3014 3011 3008 3005 3003 3000 2998 2996 2994 2992 2990 2988 2987 2986 2985 2985 2984 2984 2985 2985 2986 2988 2988 2988 2989 2990 2991 2991 2993 2994 2995 2997 2998 2999 3001 3003 3006 3008 3009 3010 3012 3014 3017 3019 3020
3114 3114 3114 3113 3113 3112 3111 3110 3109 3107 3105 3104 3102 3100 3098 3096 3093 3091 3089 3086 3083 3081 3078 3075 3071 3068 3065 3061 3058 3054 3051 3047 3044 3040 3037 3033 3029 3025 3021 3016 3013 3009 3006 3003 3000 2998 2995 2993 2991 2988 2986 2984 2983 2982 2981 2981 2980 2980 2980 2980 2981 2983 2984 2984 2985 2986 2987 2987 2988 2990 2991 2992 2994 2995 2997 2999 3002 3005 3006 3006 3008 3010 3012 3014 3017
3114 3114 3114 3113 3113 3112 3111 3110 3108 3107 3105 3103 3101 3099 3097 3095 3093 3091 3088 3086 3083 3081 3078 3075 3071 3068 3065 3061 3058 3054 3051 3047 3044 3040 3036 3032 3028 3024 3020 3016 3012 3008 3004 3001 2998 2996 2993 2991 2988 2986 2983 2981 2979 2978 2977 2977 2976 2976 2976 2976 2977 2979 2980 2980 2980 2981 2982 2983 2984 2985 2986 2988 2989 2991 2993 2995 2998 3000 3002 3002 3004 3006 3008 3010 3013
3115 3114 3114 3114 3113 3112 3111 3110 3108 3106 3105 3103 3101 3099 3097 3095 3093 3090 3088 3085 3083 3080 3077 3074 3071 3068 3064 3061 3058 3054 3051 3047 3044 3040 3036 3032 3028 3024 3020 3016 3012 3008 3003 3000 2997 2994 2992 2989 2986 2984 2981 2979 2977 2975 2974 2974 2973 2973 2972 2972 2973 2974 2975 2976 2975 2976 2977 2979 2980 2981 2982 2983 2985 2987 2989 2991 2993 2995 2997 2999 3000 3002 3005 3006 3009
3115 3114 3114 3113 3112 3111 3110 3109 3108 3106 3104 3102 3101 3099 3096 3094 3092 3090 3087 3085 3082 3079 3076 3073 3070 3067 3064 3061 3057 3054 3051 3047 3044 3040 3036 3032 3028 3024 3020 3016 3012 3008 3003 3000 2997 2994 2991 2988 2985 2982 2980 2978 2976 2974 2972 2971 2970 2970 2969 2969 2969 2970 2971 2972 2971 2971 2973 2975 2976 2977 2978 2980 2981 2983 2984 2986 2988 2990 2992 2994 2996 2998 3000 3002 3005
3115 3114 3113 3113 3112 3111 3110 3109 3107 3105 3104 3102 3100 3098 3096 3094 3091 3089 3087 3084 3081 3079 3076 3073 3070 3067 3064 3061 3057 3054 3050 3047 3044 3040 3036 3032 3028 3024 3020 3016 3012 3008 3004 3001 2998 2994 2991 2988 2985 2981 2978 2976 2974 2972 2970 2969 2968 2967 2967 2966 2966 2967 2967 2968 2968 2968 2969 2971 2972 2973 2975 2976 2977 2979 2981 2982 2984 2986 2988 2989 2992 2994 2997 2999 3001
3114 3114 3113 3112 3111 3110 3109 3108 3107 3105 3103 3101 3100 3098 3095 3093 3091 3089 3086 3084 3081 3078 3076 3073 3070 3067 3064 3060 3057 3053 3050 3046 3043 3040 3036 3032 3028 3024 3020 3016 3012 3009 3005 3001 2998 2995 2992 2989 2986 2983 2979 2976 2973 2971 2969 2968 2966 2966 2965 2964 2964 2964 2964 2965 2965 2965 2966 2967 2968 2969 2971 2972 2974 2975 2977 2978 2980 2982 2983 2985 2987 2990 2993 2995 2997
3113 3113 3112 3112 3111 3110 3109 3107 3106 3104 3103 3101 3099 3097 3095 3093 3091 3088 3086 3083 3080 3078 3075 3072 3069 3066 3063 3060 3056 3053 3049 3045 3042 3038 3034 3031 3027 3024 3020 3016 3012 3009 3005 3002 2998 2996 2993 2991 2988 2985 2981 2978 2974 2971 2969 2967 2965 2964 2963 2963 2963 2962 2963 2963 2963 2963 2964 2964 2964 2965 2967 2969 2970 2971 2972 2974 2975 2977 2979 2981 2983 2985 2988 2990 2993
3113 3112 3112 3111 3111 3110 3108 3107 3106 3104 3102 3101 3099 3097 3095 3093 3090 3088 3085 3083 3080 3078 3075 3072 3069 3065 3062 3058 3055 3051 3048 3044 3040 3037 3034 3031 3028 3024 3020 3016 3012 3009 3006 3003 3000 2997 2995 2992 2989 2985 2982 2978 2975 2972 2969 2966 2965 2963 2962 2962 2962 2962 2961 2961 2961 2961 2962 2962 2962 2963 2964 2966 2967 2967 2969 2970 2972 2973 2975 2977 2979 2981 2983 2986 2988
3112 3112 3111 3111 3110 3109 3108 3107 3105 3104 3102 3100 3099 3097 3095 3092 3090 3088 3085 3083 3080 3077 3075 3072 3069 3066 3063 3059 3055 3051 3047 3044 3041 3039 3035 3032 3029 3025 3021 3017 3013 3010 3007 3004 3001 2999 2996 2992 2989 2985 2982 2978 2975 2972 2969 2967 2965 2963 2962 2961 2961 2961 2960 2960 2960 2961 2961 2961 2961 2962 2962 2963 2964 2965 2966 2968 2969 2971 2972 2973 2975 2977 2979 2981 2983
3112 3111 3111 3110 3109 3108 3107 3106 3105 3103 3102 3100 3098 3097 3095 3092 3090 3087 3085 3083 3080 3078 3075 3072 3069 3067 3064 3061 3057 3054 3050 3047 3044 3040 3037 3033 3030 3026 3022 3018 3015 3011 3008 3005 3002 3000 2997 2993 2989 2986 2982 2979 2976 2973 2971 2969 2966 2964 2963 2962 2961 2960 2960 2960 2960 2960 2961 2961 2961 2961 2962 2962 2963 2964 2964 2966 2967 2969 2969 2971 2972 2974 2976 2977 2979
3111 3111 3110 3110 3109 3107 3106 3105 3104 3103 3101 3100 3098 3096 3094 3092 3090 3087 3085 3083 3080 3078 3075 3072 3070 3067 3064 3061 3059 3055 3052 3049 3045 3042 3038 3034 3031 3027 3023 3020 3016 3013 3010 3006 3004 3001 2998 2994 2991 2988 2984 2981 2978 2976 2973 2971 2968 2966 2965 2963 2962 2961 2961 2960 2960 2960 2960 2961 2961 2961 2961 2962 2963 2963 2964 2965 2966 2967 2968 2969 2970 2972 2973 2975 2977
3111 3110 3110 3109 3108 3107 3105 3104 3103 3102 3101 3099 3098 3096 3094 3092 3090 3087 3085 3083 3081 3079 3076 3073 3070 3067 3065 3062 3059 3056 3053 3050 3047 3043 3039 3036 3032 3028 3025 3021 3018 3014 3011 3008 3005 3002 2999 2996 2993 2990 2987 2984 2981 2978 2976 2974 2971 2969 2967 2965 2964 2963 2962 2962 2961 2961 2961 2961 2961 2961 2962 2962 2963 2963 2964 2965 2966 2966 2967 2968 2969 2971 2973 2974 2975
3110 3109 3109 3108 3107 3106 3105 3104 3103 3102 3101 3099 3097 3095 3094 3092 3090 3087 3085 3083 3081 3079 3076 3073 3071 3068 3065 3062 3060 3057 3054 3051 3048 3044 3041 3037 3034 3030 3026 3023 3020 3016 3013 3009 3006 3003 3000 2998 2995 2992 2989 2986 2984 2981 2979 2977 2975 2973 2970 2968 2967 2966 2965 2964 2964 2963 2962 2962 2962 2962 2962 2962 2963 2963 2964 2964 2965 2966 2967 2967 2969 2970 2972 2973 2974
3109 3109 3108 3108 3107 3106 3105 3104 3103 3102 3100 3099 3097 3095 3093 3092 3090 3087 3085 3083 3081 3079 3076 3074 3071 3069 3066 3063 3060 3058 3055 3052 3049 3045 3042 3039 3035 3032 3029 3025 3021 3018 3014 3011 3008 3005 3002 2999 2997 2994 2992 2989 2987 2984 2982 2980 2978 2976 2974 2972 2970 2969 2967 2966 2965 2965 2965 2964 2964 2963 2963 2963 2963 2964 2964 2964 2965 2966 2966 2967 2968 2969 2971 2972 2974
3108 3108 3107 3107 3106 3105 3104 3104 3103 3102 3100 3098 3097 3095 3093 3091 3089 3087 3085 3083 3081 3078 3076 3074 3071 3069 3066 3063 3061 3058 3056 3053 3049 3046 3043 3040 3037 3034 3030 3026 3022 3019 3016 3013 3010 3007 3004 3001 2999 2997 2994 2992 2990 2988 2985 2983 2981 2979 2977 2976 2974 2972 2970 2969 2968 2967 2967 2966 2966 2965 2965 2965 2965 2965 2965 2965 2965 2966 2966 2967 2968 2969 2970 2972 2973
3107 3107 3107 3106 3106 3105 3104 3103 3102 3101 3099 3098 3096 3095 3093 3091 3089 3087 3085 3083 3081 3078 3076 3074 3072 3069 3067 3064 3062 3059 3056 3053 3050 3047 3045 3042 3038 3035 3031 3028 3024 3021 3018 3015 3012 3009 3006 3004 3001 2999 2997 2995 2993 2991 2989 2987 2985 2983 2981 2979 2978 2976 2974 2972 2971 2970 2969 2969 2968 2968 2968 2968 2968 2967 2967 2967 2967 2966 2967 2967 2968 2968 2969 2971 2972
3106 3106 3106 3105 3105 3104 3103 3102 3101 3100 3099 3097 3096 3094 3092 3091 3089 3086 3085 3083 3081 3079 3076 3074 3072 3070 3067 3065 3062 3059 3057 3054 3052 3049 3046 3043 3040 3036 3033 3029 3026 3023 3020 3017 3014 3011 3009 3006 3004 3002 2999 2997 2996 2994 2992 2990 2988 2986 2985 2983 2981 2980 2978 2977 2975 2974 2973 2972 2972 2971 2971 2971 2971 2970 2970 2970 2969 2969 2969 2969 2969 2969 2970 2971 2972
3105 3105 3104 3104 3104 3103 3102 3101 3100 3099 3098 3097 3095 3094 3092 3090 3088 3086 3084 3083 3081 3078 3076 3074 3072 3070 3067 3065 3062 3060 3057 3055 3052 3050 3047 3043 3040 3037 3034 3031 3028 3025 3022 3019 3016 3014 3011 3009 3007 3004 3002 3000 2998 2996 2995 2993 2992 2990 2988 2986 2985 2984 2982 2981 2979 2978 2977 2976 2975 2975 2974 2974 2973 2973 2973 2972 2972 2972 2971 2971 2971 2971 2971 2972 2973
3104 3104 3103 3103 3102 3102 3101 3100 3099 3098 3097 3096 3095 3093 3092 3090 3088 3086 3084 3082 3080 3078 3076 3074 3072 3070 3067 3065 3062 3060 3057 3055 3052 3050 3047 3044 3041 3038 3035 3033 3030 3027 3024 3021 3018 3016 3014 3011 3009 3007 3005 3003 3001 2999 2997 2996 2994 2993 2991 2990 2988 2987 2985 2984 2983 2981 2980 2979 2979 2978 2977 2977 2976 2976 2975 2975 2975 2974 2974 2974 2974 2974 2974 2974 2975
3102 3102 3102 3101 3101 3100 3100 3099 3098 3097 3096 3095 3093 3092 3091 3089 3087 3085 3084 3082 3080 3078 3076 3074 3072 3069 3067 3065 3062 3060 3058 3055 3052 3050 3047 3045 3042 3039 3036 3034 3031 3028 3026 3023 3020 3018 3016 3013 3011 3009 3007 3005 3004 3002 3000 2998 2997 2995 2994 2993 2991 2990 2988 2987 2986 2985 2983 2982 2982 2981 2980 2980 2979 2979 2978 2978 2978 2977 2977 2977 2977 2977 2977 2977 2978
3101 3101 3101 3100 3100 3099 3098 3098 3097 3096 3095 3093 3092 3091 3090 3088 3086 3085 3083 3081 3080 3077 3075 3073 3071 3069 3067 3065 3062 3060 3058 3055 3053 3051 3048 3046 3043 3040 3037 3035 3032 3029 3027 3024 3022 3019 3017 3015 3013 3011 3009 3007 3006 3004 3002 3001 2999 2998 2996 2995 2994 2992 2991 2990 2988 2987 2986 2985 2984 2983 2983 2982 2982 2981 2981 2980 2980 2980 2980 2980 2980 2980 2980 2981 2981
3099 3099 3099 3099 3098 3097 3097 3096 3095 3094 3093 3092 3091 3090 3089 3087 3086 3084 3082 3081 3079 3077 3075 3073 3071 3069 3067 3065 3062 3060 3058 3056 3054 3051 3049 3046 3044 3041 3039 3036 3033 3031 3028 3026 3023 3021 3019 3017 3015 3013 3011 3009 3007 3006 3004 3003 3001 3000 2998 2997 2996 2994 2993 2992 2991 2990 2989 2988 2986 2986 2985 2984 2984 2984 2983 2983 2983 2983 2983 2983 2983 2983 2983 2983 2983
3098 3098 3097 3097 3096 3096 3095 3095 3094 3093 3092 3091 3090 3089 3087 3086 3084 3083 3081 3080 3078 3076 3074 3072 3071 3069 3067 3065 3062 3060 3058 3056 3054 3052 3049 3047 3045 3042 3039 3037 3034 3032 3030 3027 3025 3023 3020 3018 3016 3014 3012 3010 3009 3007 3006 3004 3003 3001 3000 2999 2998 2996 2995 2993 2992 2991 2991 2989 2989 2988 2987 2987 2986 2986 2986 2986 2985 2985 2985 2985 2985 2985 2985 2985 2986
3096 3096 3095 3095 3095 3094 3094 3093 3092 3091 3090 3089 3088 3087 3086 3085 3083 3082 3080 3079 3077 3076 3074 3072 3070 3068 3067 3065 3062 3060 3058 3056 3054 3052 3050 3047 3045 3043 3040 3038 3035 3033 3031 3028 3026 3024 3022 3020 3018 3015 3013 3012 3010 3008 3007 3005 3004 3003 3001 3000 2999 2998 2996 2995 2994 2993 2992 2991 2990 2990 2989 2989 2988 2988 2988 2988 2987 2987 2987 2987 2987 2987 2987 2988 2988
3094 3094 3093 3093 3093 3093 3092 3091 3090 3089 3089 3088 3087 3085 3084 3083 3082 3081 3079 3078 3076 3075 3073 3071 3070 3068 3066 3064 3062 3060 3058 3056 3054 3052 3050 3048 3045 3043 3041 3038 3036 3034 3031 3029 3027 3025 3023 3021 3019 3017 3015 3013 3011 3009 3008 3006 3005 3004 3003 3001 3000 2999 2998 2996 2995 2994 2994 2993 2992 2991 2991 2990 2990 2990 2990 2989 2989 2989 2989 2989 2990 2990 2990 2990 2990
3091 3091 3091 3091 3091 3091 3090 3089 3089 3088 3087 3086 3085 3084 3083 3082 3081 3080 3078 3077 3075 3073 3072 3070 3069 3067 3066 3064 3062 3060 3058 3056 3054 3052 3050 3048 3046 3044 3041 3039 3037 3034 3032 3030 3028 3026 3024 3022 3021 3019 3017 3015 3013 3011 3009 3008 3006 3005 3004 3002 3001 3000 2999 2998 2997 2996 2995 2994 2993 2993 2992 2992 2991 2991 2991 2991 2991 2990 2990 2991 2991 2991 2991 2991 2992
3089 3089 3089 3089 3089 3089 3088 3087 3087 3086 3085 3084 3083 3082 3081 3080 3079 3078 3077 3076 3074 3073 3071 3069 3068 3066 3065 3063 3061 3059 3058 3056 3054 3052 3050 3048 3046 3044 3041 3039 3037 3035 3033 3031 3028 3026 3025 3023 3021 3020 3018 3016 3014 3012 3011 3009 3008 3006 3005 3004 3002 3001 3000 2999 2998 2997 2996 2995 2995 2994 2993 2993 2993 2992 2992 2992 2992 2992 2992 2992 2992 2992 2993 2993 2993
3087 3087 3087 3087 3087 3086 3086 3085 3085 3084 3083 3082 3081 3080 3079 3078 3077 3076 3076 3075 3073 3071 3070 3068 3067 3065 3063 3062 3060 3059 3057 3055 3053 3051 3049 3048 3046 3044 3042 3040 3038 3036 3033 3031 3029 3027 3025 3023 3022 3020 3019 3017 3015 3013 3012 3010 3009 3007 3006 3005 3003 3002 3001 3000 3000 2999 2998 2997 2996 2995 2994 2994 2994 2993 2993 2993 2993 2993 2993 2993 2993 2993 2993 2994 2994
3085 3085 3085 3084 3084 3084 3083 3083 3082 3082 3081 3080 3079 3078 3077 3076 3075 3074 3074 3073 3072 3070 3069 3067 3066 3064 3062 3061 3059 3057 3056 3054 3053 3051 3049 3047 3046 3044 3042 3040 3038 3036 3034 3032 3029 3027 3025 3024 3022 3020 3019 3017 3016 3014 3013 3011 3010 3009 3007 3006 3004 3003 3002 3001 3001 3000 2999 2998 2997 2996 2995 2995 2995 2994 2994 2994 2994 2994 2994 2994 2994 2994 2994 2994 2994
3082 3082 3082 3082 3082 3081 3081 3080 3080 3079 3078 3078 3077 3076 3075 3074 3073 3072 3071 3070 3069 3068 3067 3066 3064 3063 3061 3060 3058 3056 3055 3053 3052 3050 3049 3047 3045 3043 3042 3040 3038 3036 3034 3032 3030 3027 3026 3024 3022 3021 3019 3018 3016 3015 3013 3012 3011 3009 3008 3007 3005 3004 3003 3002 3001 3000 3000 2999 2998 2997 2996 2996 2996 2995 2995 2995 2995 2995 2994 2994 2994 2994 2994 2994 2994